OpenBCM V1.08-5-g2f4a (Linux)

Packet Radio Mailbox

IZ3LSV

[San Dona' di P. JN]

 Login: GUEST





  
I0OJJ  > KEPS     07.12.25 12:00l 310 Lines 14714 Bytes #172 (0) @ AMSAT
BID : ORB25334.1
Read: GUEST
Subj: 2Line Orbital Elements 25334.AMSAT
Path: IZ3LSV<IW0QNL<HB9ON<DK0WUE<PD0LPM<IR0AAB<I0OJJ
Sent: 251130/0021z @:I0OJJ.ITA.EU [Rome] obcm1.08-11-2-gbfe9
From: I0OJJ @ I0OJJ.ITA.EU (Gustavo)
To:   KEPS @ AMSAT
X-Info: This message was generated automatically


QST de W1STR

AMSAT Orbital Elements for Amateur Satellites in TLE Format
From Orbital Analysis Office
New England Sci-Tech STEM Education Center
Natick MA November 30, 2025
To all radio amateurs


These element sets describe the orbits of various satellites 
in use by the amateur radio community. For details see:
www.amsat.org/keplerian-elements-formats/

A daily update of element sets is available at:
www.amsat.org/tle/daily-bulletin.txt
or without bulletin text:
www.amsat.org/tle/dailytle.txt


AO-07
1 07530U 74089B   25333.65919897 -.00000026  00000-0  12881-3 0  9995
2 07530 101.9971 339.7893 0012288 151.2042 319.4637 12.53693770335516
UO-11
1 14781U 84021B   25333.83329471  .00001601  00000-0  17136-3 0  9998
2 14781  97.7795 297.0645 0009005 117.4302 242.7833 14.90070311227435
AO-27
1 22825U 93061C   25333.71247215  .00000127  00000-0  65485-4 0  9995
2 22825  98.7163  35.9478 0007780 332.3202  27.7565 14.30869077678477
FO-29
1 24278U 96046B   25333.61232794 -.00000015  00000-0  23172-4 0  9994
2 24278  98.5469 204.5086 0348863 254.1115 102.1321 13.53261546446170
GO-32
1 25397U 98043D   25333.57082992  .00000107  00000-0  66233-4 0  9990
2 25397  98.9913 316.4797 0002292  78.9140 281.2295 14.24371124422914
ISS
1 25544U 98067A   25333.83453771  .00008010  00000-0  15237-3 0  9994
2 25544  51.6312 206.3646 0003723 184.1118 175.9840 15.49193835540850
NO-44
1 26931U 01043C   25333.60428794  .00000195  00000-0  10383-3 0  9998
2 26931  67.0521  40.4476 0007365 270.6522  89.3736 14.31843238261871
SO-50
1 27607U 02058C   25333.58249678  .00001762  00000-0  22885-3 0  9996
2 27607  64.5547  26.2619 0071550 299.0253  60.3696 14.82305025234862
CO-55
1 27844U 03031E   25333.73315098  .00000389  00000-0  18792-3 0  9994
2 27844  98.6768 339.8040 0010401  49.1502 311.0577 14.24161431163286
CO-57
1 27848U 03031J   25332.99045311  .00000336  00000-0  16704-3 0  9996
2 27848  98.6797 338.9439 0010525  67.5048 292.7244 14.23471694162896
RS-22
1 27939U 03042A   25333.88515520  .00001375  00000-0  22263-3 0  9993
2 27939  98.3365 147.7440 0011389 175.1775 321.3296 14.72909974186203
CO-58
1 28895U 05043F   25332.36931527  .00002106  00000-0  34483-3 0  9999
2 28895  98.2716 119.2054 0015278 120.7687 239.5026 14.71809877 72203
CO-65
1 32785U 08021C   25333.82312741  .00006820  00000-0  46187-3 0  9995
2 32785  97.8065 306.7318 0009434 356.9642   3.1526 15.06786964955148
CO-66
1 32791U 08021J   25333.51720109  .00018338  00000-0  74609-3 0  9996
2 32791  97.7443 318.2157 0001770 335.8864  24.2289 15.24578393956786
RS-30
1 32953U 08025A   25333.83402255  .00000054  00000-0  31754-3 0  9994
2 32953  82.5005 119.4496 0019404  29.0457 331.1699 12.43171613794925
SRMSAT
1 37841U 11058D   25333.80549367  .00000430  00000-0  89711-4 0  9993
2 37841  19.9700 186.2362 0011784 170.3145 277.4345 14.11504536729618
ZACUBE-1
1 39417U 13066B   25333.84170826  .00005864  00000-0  48195-3 0  9995
2 39417  97.8052 290.3683 0041171 188.8079 171.2426 14.98883038650841
Delfi-N3xt
1 39428U 13066N   25333.72765176  .00008014  00000-0  75718-3 0  9993
2 39428  97.8331 249.7099 0080331 147.7180 212.8992 14.91527038644852
GOMX-1
1 39430U 13066Q   25333.81969748  .00002194  00000-0  34040-3 0  9993
2 39430  97.6606 181.7529 0130740 358.1398   1.9304 14.68486452640645
LO-74
1 39440U 13066AA  25333.72728897  .00006183  00000-0  59925-3 0  9993
2 39440  97.8684 277.4186 0059177 329.9293  29.8532 14.91744044647234
AO-73
1 39444U 13066AE  25333.82975368  .00007735  00000-0  53080-3 0  9995
2 39444  97.8051 296.9551 0039724 157.6784 202.6182 15.05635889649624
DTUSAT-2
1 40030U 14033W   25333.69489433  .00008904  00000-0  53077-3 0  9996
2 40030  98.0751 314.4312 0007889 182.0245 178.0953 15.11405331622514
EO-80
1 40032U 14033Y   25333.17658539  .00009653  00000-0  57399-3 0  9999
2 40032  98.0633 313.2970 0009203 127.1036 233.1035 15.11462509622415
LILACSAT-2
1 40908U 15049K   25333.84281031  .00015915  00000-0  34886-3 0  9996
2 40908  97.4936 358.8330 0006265 253.3358 106.7203 15.44155446564912
IO-86
1 40931U 15052B   25151.18580175  .00001241  00000-0  78118-4 0  9996
2 40931   6.0006  24.0987 0012733 338.8432  21.1169 14.78805930523159
Horyu-4
1 41340U 16012D   25333.28715973  .00045309  00000-0  80447-3 0  9997
2 41340  30.9950  42.2230 0006249 101.4838 258.6513 15.48918576539460
Lapan A3
1 41603U 16040E   25333.82302216  .00004422  00000-0  14805-3 0  9998
2 41603  97.1430 331.8513 0011283  20.4602 339.7089 15.31396317524282
CAS-2T
1 41847U 16066G   25333.80540388  .00001035  00000-0  15470-3 0  9994
2 41847  98.4053  46.6716 0344253  14.3604 346.7077 14.44084130476015
TechnoSat
1 42829U 17042E   25333.01685504  .00004114  00000-0  30691-3 0  9996
2 42829  97.4015 133.8178 0019264  58.3707 301.9395 15.03236430456615
AO-91
1 43017U 17073E   25333.57839395  .00013249  00000-0  63166-3 0  9992
2 43017  97.4960 200.0758 0160918 296.0421  62.4315 15.08424287435254
S-Net D
1 43186U 18014G   25333.73582469  .00007035  00000-0  38965-3 0  9995
2 43186  97.5482 234.9311 0008905   1.7053 358.4207 15.14099312428558
S-Net B
1 43187U 18014H   25333.67758678  .00007272  00000-0  40291-3 0  9994
2 43187  97.5485 234.8526 0009373 355.7688   4.3462 15.14073546428545
S-Net A
1 43188U 18014J   25333.73558704  .00007003  00000-0  38781-3 0  9993
2 43188  97.5499 235.0846 0009286 357.0635   3.0541 15.14105714428557
S-Net C
1 43189U 18014K   25333.68051068  .00007310  00000-0  40492-3 0  9992
2 43189  97.5513 235.0731 0010429 347.6520  12.4455 15.14068170427097
Ten-Koh
1 43677U 18084G   25333.78539882  .00003765  00000-0  29448-3 0  9995
2 43677  98.0721 152.8831 0009362  59.9313 300.2837 15.01680907386225
PO-101
1 43678U 18084H   25333.83890406  .00002323  00000-0  19526-3 0  9999
2 43678  98.1029 156.7838 0007317  77.4693 282.7347 14.99331159386332
QO-100
1 43700U 18090A   25333.85835170  .00000165  00000-0  00000+0 0  9996
2 43700   0.0192 302.8627 0001221 300.2904 160.6498  1.00270949 25676
MinXSS-2
1 43758U 18099A   25333.64394535  .00024180  00000-0  74584-3 0  9995
2 43758  97.4821  40.8394 0008820 262.1091  97.9150 15.33543275383415
AO-95
1 43770U 18099N   25333.11466177  .00013373  00000-0  59801-3 0  9990
2 43770  97.4698  29.5020 0009089 339.2758  20.8108 15.21397464382742
SNUSat 2
1 43782U 18099AA  25333.67361611  .00009272  00000-0  45980-3 0  9997
2 43782  97.4382  25.3064 0009608 273.9319  86.0817 15.17908277382725
SnugLite
1 43784U 18099AC  25333.63129017  .00013259  00000-0  58667-3 0  9993
2 43784  97.4190  25.2658 0001715 272.9346  87.1694 15.21793884382919
ITASat 1
1 43786U 18099AE  25332.90203762  .00008972  00000-0  47276-3 0  9994
2 43786  97.4347  23.5038 0012827 335.9458  24.1174 15.15749539382531
EAGLET 1
1 43790U 18099AJ  25333.65895428  .00004590  00000-0  27896-3 0  9996
2 43790  97.4547  23.5334 0010479 321.2274  38.8203 15.10913338382183
ESEO
1 43792U 18099AL  25333.70328362  .00001518  00000-0  11583-3 0  9995
2 43792  97.4270  14.4207 0010167 299.2364  60.7845 15.03405420381820
JO-97
1 43803U 18099AX  25333.63997220  .00017126  00000-0  66353-3 0  9992
2 43803  97.4447  31.5036 0005294 255.1667 104.8985 15.26212697383117
Suomi 100
1 43804U 18099AY  25333.77837672  .00014224  00000-0  61017-3 0  9990
2 43804  97.4507  30.3435 0009819 262.1989  97.8133 15.22795798383016
ISAT
1 43879U 18111D   25333.75088691  .00040028  00000-0  98688-3 0  9999
2 43879  97.5894 252.9438 0005078 331.4693  28.6274 15.40434748380243
UWE-4
1 43880U 18111E   25333.71698757  .00024938  00000-0  77071-3 0  9992
2 43880  97.5844 249.8905 0009165 335.0762  25.0036 15.33473310380081
Sparrow
1 43881U 18111F   25333.75391951  .00043271  00000-0  99394-3 0  9996
2 43881  97.6080 256.6242 0006063  15.8761 344.2674 15.42550140380363
Prox-1
1 44339U 19036A   25333.73848118  .00014636  00000-0  16566-2 0  9994
2 44339  23.9975   0.8426 0006358 246.5920 113.3910 14.84672319343733
Taurus 1
1 44530U 19059C   25333.82946995  .00007667  00000-0  13210-2 0  9993
2 44530  98.6221 121.9744 0009146 213.7485 146.3137 14.68807064329344
Duchifat 3
1 44854U 19089C   25332.32203368  .00655264  17348-3  18266-2 0  9993
2 44854  36.9285 322.4147 0010265 185.4514 174.6147 15.92614449329835
TO-108
1 44881U 19093C   25333.84003255  .00001080  00000-0  12936-3 0  9993
2 44881  97.7774  45.7593 0014277  28.0641 332.1341 14.86055519321808
FloripaSat 1
1 44885U 19093G   25333.84552427  .00006549  00000-0  51705-3 0  9999
2 44885  97.8055  61.9787 0011590  17.3404 342.8214 15.00994280322715
RS-44
1 44909U 19096E   25333.80145904  .00000035  00000-0  10213-3 0  9996
2 44909  82.5194 112.2058 0216646 250.4463 107.3130 12.79745726276847
SALSAT
1 46495U 20068K   25333.54957073  .00008753  00000-0  34330-3 0  9999
2 46495  97.8780 320.1149 0008724 285.6806  74.3469 15.25980924284872
CSS (TIANHE-1)
1 48274U 21035A   25333.58031323  .00014306  00000-0  18629-3 0  9990
2 48274  41.4664  96.5478 0010593 293.9790  65.9939 15.58397325261972
TUBIN
1 48900U 21059X   25333.76287840  .00367635  58226-4  78980-3 0  9998
2 48900  97.6672 160.2363 0002781 298.5390  61.5607 15.98518265247249
CUTE
1 49263U 21088D   25333.80161538  .00025693  00000-0  34987-3 0  9990
2 49263  97.4363  56.0811 0004710 327.7220  32.3746 15.57525102231288
TeikyoSat 4
1 49396U 21102B   25333.66797999  .00001789  00000-0  11838-3 0  9994
2 49396  97.3918   5.7586 0010615 258.3251 101.6787 15.08547385222631
Z-Sat
1 49399U 21102E   25333.84302876  .00005186  00000-0  27067-3 0  9999
2 49399  97.3607  10.1749 0016231 218.1152 141.8934 15.16243898223210
